Weather History for Honolulu, HI

Change the Weather History Date:

Friday, December 14, 2012

  Actual Average Record
Temperature  
Mean Temperature 76 °F 75 °F  
Max Temperature 81 °F 81 °F 89 °F (1995)
Min Temperature 70 °F 69 °F 60 °F (1947)
Degree Days  
Heating Degree Days 0 0  
Month to date heating degree days 0 0  
Since 1 July heating degree days 0 0  
Cooling Degree Days 11 10  
Month to date cooling degree days 160 147  
Year to date cooling degree days 4352 4473  
Growing Degree Days 26 (Base 50)    
Moisture  
Dew Point 64 °F    
Average Humidity 69    
Maximum Humidity 84    
Minimum Humidity 54    
Precipitation  
Precipitation T in 0.11 in 6.40 in (1965)
Month to date precipitation 0.01 1.29  
Year to date precipitation 8.60 15.15  
Snow  
Snow 0.00 in - - ()
Month to date snowfall 0.0  
Since 1 July snowfall 0.0  
Snow Depth 0.00 in    
Sea Level Pressure  
Sea Level Pressure 30.11 in    
Wind  
Wind Speed 19 mph (ENE)    
Max Wind Speed 29 mph    
Max Gust Speed 36 mph    
Visibility 10 miles    
Events Rain    
T = Trace of Precipitation, MM = Missing Value Source: NWS Daily Summary

Daily Weather History Graph

Daily Weather History Graph

Search for Another Location

Airport:

Trip Planner

Search our weather history database for the weather conditions in past years. The results will help you decide how hot, cold, wet, or windy it might be!

Date:

Astronomy

Dec. 14, 2012 Rise Set
Actual Time 7:01 AM HST 5:52 PM HST
Civil Twilight 6:37 AM HST 6:16 PM HST
Nautical Twilight 6:09 AM HST 6:44 PM HST
Astronomical Twilight 5:42 AM HST 7:11 PM HST
Moon 8:22 AM HST (12/14) 7:49 PM HST (12/14)
Length of Visible Light 11h 39m
Length of Day
10h 50m
Waxing Crescent, 4% of the Moon is Illuminated
Dec 14
Waxing Crescent
Dec 19
First Quarter
Dec 28
Full
Jan 4
Last Quarter
Jan 11
New

Hourly Weather History & Observations

Time (HST) Temp. Heat Index Dew Point Humidity Pressure Visibility Wind Dir Wind Speed Gust Speed Precip Events Conditions
12:53 AM 72.0 °F - 66.9 °F 84% 30.13 in 10.0 mi ENE 16.1 mph - 0.00 in Rain Light Rain
1:53 AM 71.1 °F - 66.9 °F 87% 30.12 in 10.0 mi ENE 21.9 mph 28.8 mph 0.00 in Rain Light Rain
2:53 AM 73.0 °F - 64.9 °F 76% 30.11 in 10.0 mi ENE 17.3 mph 24.2 mph 0.00 in   Mostly Cloudy
3:53 AM 73.0 °F - 64.0 °F 73% 30.10 in 10.0 mi NE 19.6 mph 32.2 mph 0.00 in   Mostly Cloudy
4:53 AM 73.0 °F - 63.0 °F 71% 30.09 in 10.0 mi ENE 16.1 mph 25.3 mph N/A   Mostly Cloudy
5:53 AM 73.0 °F - 62.1 °F 68% 30.10 in 10.0 mi NE 16.1 mph 27.6 mph N/A   Scattered Clouds
6:53 AM 73.0 °F - 63.0 °F 71% 30.10 in 10.0 mi NE 15.0 mph 31.1 mph N/A   Scattered Clouds
7:53 AM 73.9 °F - 63.0 °F 68% 30.12 in 10.0 mi ENE 19.6 mph 35.7 mph N/A   Scattered Clouds
8:53 AM 73.9 °F - 63.0 °F 68% 30.15 in 10.0 mi ENE 13.8 mph 24.2 mph 0.00 in   Scattered Clouds
9:53 AM 75.9 °F - 64.0 °F 67% 30.16 in 10.0 mi ENE 18.4 mph 28.8 mph N/A   Scattered Clouds
10:53 AM 80.1 °F 81.2 °F 62.1 °F 54% 30.16 in 10.0 mi ENE 19.6 mph 29.9 mph N/A   Scattered Clouds
11:53 AM 79.0 °F - 62.1 °F 56% 30.14 in 10.0 mi NE 25.3 mph 32.2 mph N/A   Mostly Cloudy
12:53 PM 79.0 °F - 64.0 °F 60% 30.12 in 10.0 mi NE 23.0 mph - N/A   Mostly Cloudy
1:53 PM 81.0 °F 82.5 °F 64.0 °F 56% 30.09 in 10.0 mi ENE 16.1 mph 26.5 mph 0.00 in   Scattered Clouds
2:53 PM 80.1 °F 81.5 °F 63.0 °F 56% 30.08 in 10.0 mi ENE 20.7 mph 26.5 mph N/A   Scattered Clouds
3:53 PM 79.0 °F - 64.0 °F 60% 30.07 in 10.0 mi NE 19.6 mph 26.5 mph N/A   Scattered Clouds
4:53 PM 77.0 °F - 64.0 °F 64% 30.07 in 10.0 mi ENE 19.6 mph 25.3 mph N/A   Scattered Clouds
5:53 PM 75.0 °F - 63.0 °F 66% 30.09 in 10.0 mi NE 21.9 mph 35.7 mph N/A   Scattered Clouds
6:53 PM 75.0 °F - 64.0 °F 69% 30.10 in 10.0 mi ENE 21.9 mph 28.8 mph N/A   Partly Cloudy
7:53 PM 73.9 °F - 64.9 °F 73% 30.11 in 10.0 mi ENE 16.1 mph - N/A   Scattered Clouds
8:53 PM 73.0 °F - 64.9 °F 76% 30.12 in 10.0 mi NE 15.0 mph - N/A   Scattered Clouds
9:53 PM 73.9 °F - 64.9 °F 73% 30.13 in 10.0 mi ENE 12.7 mph 25.3 mph N/A   Scattered Clouds
10:53 PM 73.9 °F - 64.0 °F 71% 30.13 in 10.0 mi ENE 21.9 mph 28.8 mph N/A   Mostly Cloudy
11:53 PM 73.9 °F - 64.9 °F 73% 30.12 in 10.0 mi ENE 18.4 mph 25.3 mph N/A   Mostly Cloudy